www.pogodaiklimat.ru

Погода и климат >> Архив погоды >> Норвегия >> Берген аэропорт


ПОГОДА в Берген аэропорту

  • Прогноз погоды в Берген аэропорту
  • Монитор погоды в Берген аэропорту

АРХИВ ПОГОДЫ в Берген аэропорту

Время (UTC), дата Ветер
(напр.,м/с)
 
Видим.   Явления Облачность Т
(С)
Тd
(С)
f
(%)
Тe
(С)
Тes
(С)
Комфортность P
(гПа)
Po
(гПа)
Тmin
(С)
Tmax
(С)
R
(мм)
R24
(мм)
S
(см)
13 18.08 Ю 9
{15}
35 км 6/0
[]
+16.8 +9.2 61 +15 +16 997.8 991.9
14 18.08 ЮВ 5
{11}
35 км слаб. ливневой дождь 9/0
[]
+15.4 +10.2 71 +14 +16 997.8 991.8
15 18.08 ЮВ 4
{12}
27 км в посл. час дождь 10/0 2000 м
[]
+14.4 +12.0 85 +13 +15 997.6 991.7 0.9
16 18.08 ЮВ 5
{8}
27 км в посл. час морось 10/10 600 м
[]
+15.9 +11.1 73 +15 +15 997.3 991.4
17 18.08 ЮВ 6
{9}
45 км 6/0 2000 м
[]
+15.5 +10.1 70 +14 +14 997.2 991.2
18 18.08 Ю 5
{15}
17 км слаб. дождь 8/0
[]
+14.7 +11.0 78 +13 +13 997.1 991.1 +13.0 +18.2 4
19 18.08 ЮВ 5
{8}
35 км в посл. час дождь 3/0
[]
+14.4 +10.5 77 +13 +13 996.7 990.7 0.2
20 18.08 ЮВ 6
{8}
35 км 8/0 2000 м
[]
+14.6 +10.4 76 +13 +13 996.8 990.9
21 18.08 ЮВ 8
{12}
12 км слаб. ливневой дождь 9/9 50 м
[]
+13.7 +11.0 84 +11 +11 997.0 991.0
22 18.08 ЮВ 6
{12}
45 км слаб. ливневой дождь 10/0
[]
+13.0 +10.9 87 +11 +11 997.0 991.0 2
23 18.08 ЮВ 6
{11}
35 км в посл. час дождь 6/0
[]
+12.9 +11.0 88 +10 +10 996.7 990.7 0.5
00 19.08 ЮВ 7
{12}
35 км 10/10 1000 м
[]
+13.4 +11.1 86 +11 +11 996.5 990.5 2
01 19.08 ЮВ 7
{11}
35 км в посл. час дождь 8/8 1000 м
[]
+13.1 +10.7 85 +10 +10 995.8 989.9 0.1
02 19.08 ЮВ 8
{13}
22 км ливневой дождь 10/10 1500 м
[]
+12.9 +10.7 86 +10 +10 995.5 989.5 0.3
03 19.08 ЮВ 6
{11}
6000 м сильн. ливневой дождь 10/10 100 м
[]
+12.4 +11.2 92 +10 +10 995.7 989.7 3
04 19.08 ЮВ 7
{11}
2200 м сильн. ливневой дождь 10/10 <50 м
[]
+12.2 +11.2 94 +9 +9 995.4 989.4 2
05 19.08 ЮВ 6
{11}
9000 м дождь 10/10 600 м
[]
+12.1 +10.8 92 +9 +9 996.0 990.0 10
06 19.08 Ю 3
{13}
7000 м дождь 10/0 2000 м
[]
+12.5 +11.6 94 +11 +11 996.2 990.2 +12.1 +14.8 19
07 19.08 Ю 5
{8}
16 км в посл. час дождь 10/10 1500 м
[]
+13.7 +12.0 89 +12 +12 996.7 990.7 0.3
08 19.08 ЮЗ 7
{9}
23 км 1/1 300 м
[]
+14.9 +12.1 83 +13 +14 997.4 991.4
09 19.08 ЮЗ 8
{11}
19 км в посл. час дождь 9/9 300 м
[]
+14.7 +12.5 87 +12 +13 998.0 992.0
10 19.08 ЮЗ 7
{12}
11 км слаб. ливневой дождь 9/9 300 м
[]
+15.1 +12.1 82 +13 +13 998.8 992.8 0.4
11 19.08 ЮЗ 7
{13}
13 км слаб. ливневой дождь 9/9 300 м
[]
+13.4 +11.6 89 +11 +11 1000.0 994.0 0.8
12 19.08 ЮЗ 7
{13}
22 км в посл. час дождь 10/10 600 м
[]
+14.6 +11.7 83 +13 +13 1000.8 994.8 2
13 19.08 ЮЗ 7
{12}
13 км слаб. дождь 10/10 300 м
[]
+13.6 +11.7 88 +11 +11 1001.8 995.8 0.2
14 19.08 ЮЗ 6
{10}
5000 м ливневой дождь 10/10 300 м
[]
+13.7 +12.1 90 +11 +11 1002.4 996.4 1
15 19.08 ЮЗ 8
{12}
17 км в посл. час дождь 10/0
[]
+15.0 +12.5 85 +13 +13 1002.9 997.0 0.8
16 19.08 ЮЗ 9
{12}
23 км в посл. час дождь 10/10 300 м
[]
+14.9 +12.0 83 +13 +13 1003.4 997.4 0.2
17 19.08 ЮЗ 7
{11}
20 км 10/10 300 м
[]
+15.0 +12.1 83 +13 +13 1003.8 997.8
18 19.08 ЮЗ 7
{12}
20 км 10/0
[]
+14.8 +11.9 83 +13 +13 1004.2 998.3 +12.5 +15.7 4
19 19.08 Ю 7
{10}
20 км 10/10 300 м
[]
+14.5 +11.4 82 +12 +12 1004.8 998.8
20 19.08 ЮЗ 7
{11}
27 км 8/0
[]
+14.4 +11.0 80 +12 +12 1005.4 999.4
21 19.08 ЮЗ 6
{9}
21 км 6/6 600 м
[]
+14.3 +11.5 83 +12 +12 1005.5 999.5
22 19.08 ЮЗ 7
{10}
26 км 5/0
[]
+14.2 +11.3 83 +12 +12 1005.8 999.8
23 19.08 Ю 7
{11}
27 км в посл. час дождь 10/10 1000 м
[]
+13.9 +11.7 87 +12 +12 1006.2 1000.1 0.2
00 20.08 ЮЗ 7
{11}
25 км в посл. час дождь 10/0
[]
+14.3 +11.5 83 +12 +12 1006.3 1000.3 0.2
01 20.08 ЮЗ 5
{11}
19 км ливневой дождь 10/10 1000 м
[]
+13.0 +10.7 86 +11 +11 1006.6 1000.6 5
02 20.08 З 6
{11}
5000 м ливневой дождь 10/10 600 м
[]
+12.7 +11.5 92 +10 +10 1006.6 1000.5 5
03 20.08 ЮЗ 6
{9}
13 км дождь 10/0 2000 м
[]
+12.8 +10.9 88 +10 +10 1006.8 1000.8 2
04 20.08 Ю 4
{7}
21 км в посл. час дождь 10/10 1000 м
[]
+13.0 +11.8 92 +11 +11 1007.2 1001.2 0.3
05 20.08 Ю 5
{6}
30 км 10/10 300 м
[]
+13.4 +11.1 86 +11 +11 1007.5 1001.5
06 20.08 ЮЗ 5
{11}
30 км слаб. ливневой дождь 10/10 1000 м
[]
+13.6 +11.4 87 +12 +12 1007.9 1001.8 +12.3 +15.0 12
07 20.08 ЮЗ 5
{9}
18 км слаб. ливневой дождь 10/10 300 м
[]
+13.8 +12.1 89 +12 +12 1008.2 1002.2 0.4
08 20.08 ЮЗ 4
{8}
12 км ливневой дождь 9/0 2000 м
[]
+13.5 +12.1 91 +12 +13 1008.9 1002.9 3
09 20.08 З 4
{7}
18 км слаб. ливневой дождь 10/0 2000 м
[]
+14.2 +12.4 89 +13 +15 1009.7 1003.7 0.1
10 20.08 З 4
{7}
21 км 10/0 2000 м
[]
+14.5 +11.8 84 +13 +16 1010.4 1004.4
11 20.08 З 4
{6}
35 км 10/10 1000 м
[]
+14.3 +10.4 77 +13 +13 1011.4 1005.3
12 20.08 З 3
{9}
16 км ливневой дождь 10/10 600 м
[]
+13.3 +11.1 87 +12 +12 1012.3 1006.2 3
13 20.08 З 3
{9}
30 км в посл. час дождь 10/10 300 м
[]
+14.0 +10.7 80 +13 +13 1013.1 1007.1 0.6
14 20.08 З 3
{7}
35 км 10/10 600 м
[]
+14.1 +9.9 76 +13 +13 1013.9 1007.9
15 20.08 З 4
{6}
35 км 10/10 600 м
[]
+13.7 +9.5 76 +12 +12 1014.6 1008.6
16 20.08 З 4
{7}
29 км 9/9 1000 м
[]
+14.3 +8.6 69 +13 +13 1015.3 1009.3
17 20.08 З 2
{6}
28 км в посл. час морось 10/10 600 м
[]
+14.0 +9.9 76 +14 +14 1015.7 1009.7
18 20.08 СЗ 3
{9}
40 км 10/10 1000 м
[]
+13.3 +10.0 80 +12 +12 1016.3 1010.2 +13.0 +14.9 4
19 20.08 СЗ 3
{6}
40 км ясно +12.7 +10.1 84 +11 +11 1017.0 1010.9
20 20.08 ЮЗ 1
{6}
8000 м морось 10/10 1000 м
[]
+11.7 +10.2 91 +11 +11 1017.9 1011.8
21 20.08 СЗ 1
{3}
11 км слаб. ливневой дождь 10/10 1500 м
[]
+11.6 +10.2 91 +11 +11 1018.5 1012.3 0.9
22 20.08 СЗ 2
{3}
30 км 4/4 1500 м
[]
+11.5 +10.1 91 +10 +10 1018.9 1012.8
23 20.08 СЗ 2
{6}
11 км слаб. ливневой дождь 10/10 1000 м
[]
+11.6 +9.1 85 +10 +10 1019.5 1013.3 0.1
00 21.08 С 2
{6}
35 км в посл. час морось 10/10 1000 м
[]
+10.7 +9.3 91 +9 +9 1019.9 1013.7 1
01 21.08 СВ 1
{2}
35 км 10/10 1000 м
[]
+10.2 +9.5 95 +10 +10 1020.2 1014.0
02 21.08 штиль 0
{1}
25 км 8/8 1000 м
[]
+9.7 +9.2 97 +9 +9 1020.6 1014.4
03 21.08 В 1
{1}
28 км 10/10 1000 м
[]
+10.0 +9.6 97 +9 +9 1020.8 1014.6
04 21.08 В 1
{2}
35 км 10/10 1000 м
[]
+10.1 +9.6 97 +9 +9 1021.2 1015.1
05 21.08 ЮВ 1
{2}
40 км 10/0
[]
+10.0 +9.0 93 +9 +10 1021.7 1015.5
06 21.08 ЮВ 1
{2}
30 км 10/10 1000 м
[]
+10.7 +9.5 92 +10 +10 1022.0 1015.8 +9.6 +13.2 1
07 21.08 ЮВ 1
{2}
28 км 10/10 1000 м
[]
+11.8 +9.9 88 +12 +12 1022.3 1016.1
08 21.08 ЮВ 2
{3}
30 км 10/10 1000 м
[]
+13.0 +8.7 75 +12 +12 1022.6 1016.4
09 21.08 ЮВ 3
{3}
35 км 10/10 600 м
[]
+13.1 +7.8 70 +12 +12 1022.9 1016.7
10 21.08 ЮЗ 4
{6}
30 км 10/10 1000 м
[]
+13.7 +8.5 71 +12 +12 1022.9 1016.7
11 21.08 ЮЗ 2
{6}
35 км 8/0
[]
+13.9 +7.4 65 +13 +19 1022.8 1016.7
12 21.08 ЮЗ 4
{6}
28 км 1/1 1500 м
[]
+14.9 +7.4 61 +14 +19 1022.8 1016.7
13 21.08 Ю 4
{7}
22 км 8/8 1500 м
[]
+15.2 +7.2 59 +14 +15 1022.9 1016.8
14 21.08 ЮЗ 4
{7}
30 км 1/0
[]
+15.5 +8.2 62 +15 +19 1022.8 1016.8
15 21.08 Ю 6
{8}
30 км 1/0
[]
+15.2 +7.4 60 +14 +16 1022.7 1016.6
16 21.08 ЮЗ 6
{8}
30 км ясно +14.7 +6.9 59 +13 +14 1022.6 1016.5
17 21.08 ЮЗ 4
{8}
35 км ясно +14.5 +7.3 62 +13 +14 1022.2 1016.1
18 21.08 Ю 4
{8}
30 км ясно +14.1 +7.8 66 +13 +13 1021.9 1015.8 +10.7 +15.9
19 21.08 Ю 5
{6}
40 км ясно +12.9 +8.1 73 +11 +11 1021.5 1015.4
20 21.08 ЮВ 2
{5}
40 км ясно +12.0 +8.5 79 +11 +11 1021.1 1015.0
21 21.08 ЮВ 5
{6}
35 км ясно +12.1 +7.8 75 +10 +10 1021.0 1014.8
22 21.08 ЮВ 5
{7}
40 км 10/10 1000 м
[]
+12.9 +7.9 72 +11 +11 1020.5 1014.4
23 21.08 ЮВ 5
{7}
40 км 4/0
[]
+13.0 +7.4 69 +11 +11 1019.8 1013.7
00 22.08 ЮВ 5
{8}
40 км 8/0
[]
+13.4 +7.7 68 +12 +12 1018.9 1012.8
01 22.08 ЮВ 5
{8}
12 км слаб. дождь 10/10 1500 м
[]
+12.6 +8.9 78 +10 +10 1018.4 1012.3 0.1
02 22.08 ЮВ 6
{9}
16 км слаб. ливневой дождь 10/10 600 м
[]
+11.9 +10.0 88 +9 +9 1017.6 1011.5 1
03 22.08 ЮВ 7
{9}
40 км 3/0
[]
+12.8 +9.7 81 +10 +10 1016.1 1010.0
04 22.08 ЮВ 6
{10}
6000 м дождь 10/0
[]
+12.2 +10.4 89 +9 +9 1015.7 1009.6 2
05 22.08 ЮВ 7
{10}
9000 м дождь 10/10 600 м
[]
+12.4 +11.2 92 +9 +9 1015.2 1009.1 5
06 22.08 ЮВ 7
{10}
8000 м дождь 10/10 600 м
[]
+12.7 +11.4 92 +10 +10 1014.5 1008.4 +11.6 +14.1 11
07 22.08 ЮВ 6
{11}
8000 м дождь 10/10 600 м
[]
+12.8 +11.6 92 +10 +10 1013.5 1007.4 3
08 22.08 ЮВ 6
{9}
3900 м сильн. ливневой дождь 10/10 50 м
[]
+12.6 +11.6 94 +10 +10 1012.9 1006.8 2
09 22.08 ЮВ 7
{10}
16 км слаб. ливневой дождь 8/0
[]
+13.0 +11.9 93 +10 +11 1012.7 1006.6 5
10 22.08 ЮЗ 4
{14}
25 км в посл. час дождь 9/9 1000 м
[]
+15.2 +13.2 88 +14 +15 1013.2 1007.2 2
11 22.08 ЮЗ 7
{9}
18 км 5/5 1000 м
[]
+15.8 +12.0 78 +14 +15 1013.3 1007.3
12 22.08 ЮЗ 6
{13}
18 км 10/0
[]
+15.4 +12.2 81 +14 +16 1013.6 1007.6 12
13 22.08 ЮЗ 6
{10}
19 км 6/0
[]
+16.4 +11.9 75 +15 +17 1014.0 1008.0
14 22.08 ЮЗ 7
{9}
23 км 6/0
[]
+15.8 +11.4 75 +14 +15 1014.3 1008.2
15 22.08 ЮЗ 6
{10}
23 км 3/0
[]
+15.2 +10.3 73 +14 +15 1014.4 1008.4
16 22.08 ЮЗ 6
{10}
24 км 9/0
[]
+15.1 +10.5 74 +13 +14 1014.4 1008.3
17 22.08 Ю 6
{9}
24 км 10/10 1500 м
[]
+14.7 +10.6 76 +13 +13 1014.1 1008.1
18 22.08 Ю 8
{12}
22 км 4/0
[]
+14.4 +9.7 73 +12 +12 1014.0 1007.9 +12.5 +16.6 12
19 22.08 Ю 7
{11}
22 км 6/0
[]
+14.3 +9.7 74 +12 +12 1013.6 1007.5
20 22.08 ЮВ 7
{13}
12 км слаб. ливневой дождь 10/10 100 м
[]
+12.8 +10.9 88 +10 +10 1013.5 1007.4 0.4
21 22.08 Ю 8
{13}
15 км в посл. час дождь 9/0
[]
+13.9 +11.7 87 +11 +11 1012.8 1006.8 1
22 22.08 Ю 7
{10}
21 км слаб. ливневой дождь 10/0
[]
+14.2 +12.1 87 +12 +12 1012.0 1006.0
23 22.08 Ю 6
{9}
7000 м ливневой дождь 10/10 <50 м
[]
+13.8 +12.6 92 +12 +12 1011.2 1005.1 0.1
00 23.08 ЮЗ 9
{13}
14 км слаб. ливневой дождь 10/10 300 м
[]
+15.0 +13.5 91 +13 +13 1010.7 1004.7 10
01 23.08 ЮЗ 8
{17}
13 км в посл. час дождь 8/8 600 м
[]
+15.2 +13.3 88 +13 +13 1011.0 1005.0
02 23.08 ЮЗ 7
{11}
12 км 9/9 300 м
[]
+15.0 +13.3 90 +13 +13 1011.3 1005.3
03 23.08 ЮЗ 6
{9}
11 км 10/10 1000 м
[]
+14.8 +12.6 87 +13 +13 1012.0 1005.9
04 23.08 ЮЗ 6
{9}
13 км 9/9 1500 м
[]
+14.6 +11.7 83 +13 +13 1012.5 1006.5
05 23.08 ЮЗ 6
{8}
15 км 10/10 1500 м
[]
+14.4 +11.1 81 +12 +12 1013.2 1007.1
06 23.08 Ю 7
{17}
16 км в посл. час морось 9/0
[]
+14.5 +10.8 78 +12 +13 1013.9 1007.9 +12.5 +15.4 10
07 23.08 Ю 6
{9}
18 км 10/10 1500 м
[]
+14.6 +10.8 78 +13 +13 1014.7 1008.7
08 23.08 ЮЗ 7
{11}
18 км слаб. дождь 10/10 200 м
[]
+13.8 +10.4 80 +11 +11 1015.7 1009.6
09 23.08 ЮЗ 7
{11}
20 км в посл. час дождь 10/10 1500 м
[]
+15.0 +10.3 73 +13 +13 1016.1 1010.1 0.1
10 23.08 ЮЗ 5
{9}
14 км слаб. ливневой дождь 10/10 200 м
[]
+14.4 +10.2 76 +13 +13 1017.0 1010.9 0.2
11 23.08 ЮЗ 7
{10}
14 км в посл. час морось 6/6 1000 м
[]
+16.0 +11.3 74 +15 +15 1017.7 1011.7
12 23.08 ЮЗ 6
{11}
19 км 6/0
[]
+16.0 +10.8 71 +15 +17 1018.5 1012.4 0.3
13 23.08 Ю 6
{9}
21 км 8/8 600 м
[]
+16.1 +11.0 72 +15 +15 1018.8 1012.8
14 23.08 Ю 6
{9}
18 км 10/0
[]
+15.9 +11.6 76 +15 +16 1019.1 1013.1
15 23.08 Ю 6
{8}
10 км слаб. дождь 10/10 600 м
[]
+14.7 +12.8 88 +13 +13 1019.5 1013.4 0.1
16 23.08 Ю 4
{8}
5000 м дождь 10/10 100 м
[]
+14.1 +13.4 96 +13 +13 1019.9 1013.8 3
17 23.08 Ю 4
{7}
4600 м слаб. дождь 10/10 100 м
[]
+13.9 +13.2 96 +12 +12 1019.7 1013.6 2
18 23.08 ЮВ 4
{9}
3200 м морось 10/10 100 м
[]
+13.7 +13.2 97 +12 +12 1019.8 1013.7 +13.5 +16.9 6
19 23.08 ЮВ 4
{5}
2600 м морось ?/? +13.7 +13.2 97 +12 +12 1020.1 1014.0 0.6
20 23.08 Ю 4
{6}
3000 м слаб. ливневой дождь 10/0
[]
+14.2 +13.8 97 +13 +13 1020.7 1014.6 0.2
21 23.08 ЮЗ 4
{6}
2800 м морось 10/10 50 м
[]
+14.7 +14.4 98 +13 +13 1021.2 1015.1 1
22 23.08 ЮЗ 3
{7}
6000 м слаб. ливневой дождь 10/10 200 м
[]
+14.7 +14.2 97 +14 +14 1021.6 1015.5 0.3
23 23.08 Ю 4
{4}
8000 м 10/10 200 м
[]
+15.0 +14.4 96 +14 +14 1022.0 1015.9
00 24.08 Ю 2
{7}
10 км 10/10 200 м
[]
+14.9 +14.2 96 +15 +15 1022.5 1016.4 3
01 24.08 ЮВ 3
{4}
7000 м 10/10 300 м
[]
+14.9 +14.3 96 +14 +14 1022.5 1016.4
02 24.08 ЮВ 3
{5}
9000 м 10/10 600 м
[]
+14.9 +14.3 96 +14 +14 1022.5 1016.4
03 24.08 ЮВ 4
{5}
24 км 10/0
[]
+14.8 +14.0 95 +14 +14 1022.6 1016.5
04 24.08 ЮВ 4
{6}
23 км 10/0
[]
+14.8 +14.0 95 +14 +14 1022.4 1016.3
05 24.08 Ю 4
{6}
16 км 10/0
[]
+14.9 +13.9 94 +14 +14 1022.8 1016.7
06 24.08 ЮВ 4
{6}
23 км 5/5 1000 м
[]
+15.0 +13.8 93 +14 +14 1022.5 1016.4 +13.6 +15.0 3
07 24.08 ЮВ 5
{7}
40 км 10/10 600 м
[]
+15.7 +13.9 89 +14 +14 1022.6 1016.5
08 24.08 ЮВ 5
{7}
35 км 10/10 600 м
[]
+15.9 +13.6 86 +15 +15 1022.8 1016.7
09 24.08 ЮВ 5
{7}
30 км в посл. час дождь 9/9 1500 м
[]
+17.5 +14.0 80 +17 +17 1022.7 1016.7
10 24.08 ЮВ 7
{9}
30 км 6/6 1500 м
[]
+18.4 +14.0 76 +18 +19 1022.5 1016.5
11 24.08 Ю 8
{12}
29 км 8/8 1500 м
[]
+19.1 +13.9 72 +20 +20 1022.5 1016.5
12 24.08 Ю 7
{12}
35 км 10/10 600 м
[]
+19.3 +14.4 73 +20 +20 1022.4 1016.4
13 24.08 Ю 9
{12}
40 км 10/10 600 м
[]
+19.7 +14.5 72 +21 +21 комфорт 1022.5 1016.5
14 24.08 Ю 8
{12}
35 км в посл. час дождь 10/10 1000 м
[]
+19.4 +14.4 73 +20 +20 1022.6 1016.6
15 24.08 Ю 10
{12}
40 км 10/10 1000 м
[]
+19.3 +13.9 71 +20 +20 1022.5 1016.5
16 24.08 Ю 7
{12}
35 км 10/10 1000 м
[]
+19.0 +14.2 74 +20 +20 1022.5 1016.5
17 24.08 Ю 7
{11}
30 км 10/10 1000 м
[]
+18.7 +13.9 74 +19 +19 1022.3 1016.3
18 24.08 Ю 6
{12}
40 км 10/10 1000 м
[]
+18.3 +13.8 75 +18 +18 1022.2 1016.2 +15.0 +20.1
19 24.08 Ю 7
{9}
30 км слаб. ливневой дождь 10/10 600 м
[]
+17.9 +14.0 78 +17 +17 1022.3 1016.3
20 24.08 Ю 5
{10}
45 км в посл. час дождь 10/10 600 м
[]
+17.8 +14.4 80 +17 +17 1022.3 1016.3 0.6
21 24.08 Ю 6
{8}
45 км 10/10 600 м
[]
+17.8 +14.1 79 +17 +17 1022.2 1016.2
22 24.08 Ю 7
{9}
50 км 10/10 600 м
[]
+17.8 +13.4 75 +17 +17 1022.1 1016.1
23 24.08 Ю 6
{9}
45 км 10/10 600 м
[]
+17.2 +13.0 76 +16 +16 1022.2 1016.2
00 25.08 Ю 7
{10}
45 км 10/10 1000 м
[]
+17.3 +13.0 76 +16 +16 1022.2 1016.2 0.6
01 25.08 Ю 7
{10}
45 км 10/10 1000 м
[]
+17.1 +13.3 78 +16 +16 1022.3 1016.3
02 25.08 Ю 7
{10}
50 км 10/10 600 м
[]
+17.1 +13.3 78 +16 +16 1022.3 1016.3
03 25.08 Ю 6
{9}
50 км 9/0
[]
+16.8 +13.1 79 +16 +16 1022.4 1016.3
04 25.08 Ю 5
{7}
50 км 10/10 600 м
[]
+16.7 +13.0 79 +16 +16 1022.4 1016.3
05 25.08 ЮВ 4
{6}
50 км 5/5 1500 м
[]
+16.7 +12.7 77 +16 +16 1022.3 1016.3
06 25.08 Ю 4
{10}
45 км 4/4 600 м
[]
+17.1 +13.0 77 +17 +17 1022.2 1016.1 +16.6 +18.4 0.6
07 25.08 Ю 3
{4}
45 км 1/0
[]
+18.3 +14.0 76 +19 +20 1022.1 1016.1
08 25.08 Ю 5
{7}
35 км 6/0
[]
+19.7 +14.2 71 +21 +23 комфорт 1022.1 1016.1
09 25.08 Ю 6
{8}
40 км 5/0
[]
+20.1 +14.6 71 +22 +24 комфорт 1022.0 1016.0
10 25.08 Ю 5
{8}
35 км 8/8 600 м
[]
+19.9 +14.6 72 +22 +23 комфорт 1022.1 1016.1
11 25.08 ЮЗ 7
{11}
29 км 5/0
[]
+19.6 +15.3 76 +21 +23 комфорт 1022.5 1016.5
12 25.08 Ю 7
{11}
20 км 1/0
[]
+19.6 +15.8 79 +21 +23 комфорт 1022.7 1016.7
13 25.08 ЮЗ 7
{11}
20 км 1/0
[]
+19.2 +15.6 80 +20 +22 1022.7 1016.7

 

Местоположение метеостанции Берген аэропорт (Норвегия): широта 62.29 долгота 5.23 высота над уровнем моря 48 м.

В архиве по умолчанию представлена погода в Берген аэропорту за последнюю неделю. Архивные данные за месяц целиком и за предыдущие месяцы, начиная с января 2011 года, Вы можете получить, выбрав интересующий диапазон дат из раскрывающегося списка и нажав кнопку "Ввод!".


*Определитесь, кто Вы:
робот инопланетянин человек

Внимание! Время в таблицах - всемирное. Для получения местного времени необходимо прибавить поправку, которая равна 1 ч.

Смотрите также архив погоды в соседних городах и на ближайших метеорологических станциях:

Погода на Маяке Svinoy (Норвегия) (5 км)
Погода в Фиске (Норвегия) (28 км)
Погода на Маяке Krakenes (Норвегия) (31 км)
Погода в Аэропорту Орста-Волда (Норвегия) (46 км)
Погода в Олесунне (Норвегия) (54 км)
Погода в Олесунн аэропорту (Норвегия) (55 км)
Погода в Сандан аэропорту (Норвегия) (68 км)
Погода в Флоро аэропорту (Норвегия) (80 км)
Погода в Стрын-Крокене (Норвегия) (81 км)
Погода на Маяке Ytteroyane (Норвегия) (85 км)

Пояснения к столбцам:

Ветер - указаны скорость ветра в м/с - средняя за 10 мин, порывы в срок и между сроками (в фигурных скобках) и направление, откуда дует ветер: С - северный, СВ - северо-восточный, В - восточный, ЮВ - юго-восточный, Ю - южный, ЮЗ - юго-западный, З - западный, СЗ - северо-западный.
Видимость - горизонтальная дальность видимости в метрах или километрах. При видимости от 1 до 10 км при отсутствии осадков обычно наблюдается дымка, при ухудшении видимости до 1 км и менее - туман. В сухую погоду видимость может ухудшаться дымом, пылью или мглою.
Явления - указаны атмосферные явления, наблюдавшиеся в срок или в последний час перед сроком; фигурными скобками обозначены явления, наблюдавшиеся между сроками (за 1-3 часа до срока); квадратными скобками обозначены град или гололедные отложения с указанием их диаметра в мм.
Облачность - указаны через наклонную черту общая и нижняя облачность в баллах и высота нижней границы облаков в метрах; квадратными скобками обозначены формы облаков: Ci - перистые, Cs - перисто-слоистые, Cc - перисто-кучевые, Ac - высококучевые, As - высокослоистые, Sc - слоисто-кучевые, Ns - слоисто-дождевые, Cu - кучевые, Cb - кучево-дождевые. Подробнее классификацию облаков см. в Атласе облаков (PDF).
T - Температура воздуха - температура, измеренная на высоте 2 м над землей.
Td - Температура точки росы - температура, при понижении до которой содержащийся в воздухе водяной пар достигнет насыщения.
f - Относительная влажность воздуха - влажноcть воздуха, измеренная на высоте 2 м над землей.
Te - Эффективная температура - температура, которую ощущает одетый по сезону человек в тени. Характеристика душности погоды. При расчете учитывается влияние влажности воздуха и скорости ветра на теплоощущения человека.
Tes - Эффективная температура на солнце - температура, которую ощущает человек, с поправкой на солнечный нагрев. Характеристика знойности погоды. Зависит от высоты солнца над горизонтом, облачности и скорости ветра. Ночью, в пасмурную погоду, а также при ветре 12 м/с и более поправка равна нулю.
P - Атмосферное давление - приведенное к уровню моря атмосферное давление.
Po - Атмосферное давление - измеренное на уровне метеостанции атмосферное давление.
Tmin - Минимальная температура - минимум температуры воздуха на высоте 2 м над землей.
Tmax - Максимальная температура - максимум температуры воздуха на высоте 2 м над землей.
R - Количество осадков - Количество выпавших осадков за период времени, мм. При наведении курсора мыши на число - период времени, за который выпало указанное количество осадков.
R24 - Количество осадков - Количество выпавших осадков за 24 часа, мм.
S - Снежный покров - Высота снежного покрова, см. При наведении курсора мыши на число - состояние снежного покрова и степень покрытия местности в баллах.